This is the latest recevied weather packets stored in our database for station/object OM6ACB-6. If no packets are shown the sender has not sent any weather packets the latest 10 day(s).
| Time | Temp. | Humidity | Pressure | Rain* | Wind** | Luminosity | Snow |
|---|---|---|---|---|---|---|---|
| 1788405270 | 13.33° C | 49% | 1023.2 hPa | 0 mm | - | - | - |
| 1788404670 | 13.33° C | 49% | 1023.2 hPa | 0 mm | - | - | - |
| 1788404070 | 13.33° C | 47% | 1023.2 hPa | 0 mm | - | - | - |
| 1788403488 | 13.33° C | 43% | 1023.2 hPa | 0 mm | - | - | - |
| 1788402869 | 13.33° C | 37% | 1023.4 hPa | 0 mm | - | - | - |
| 1788402269 | 13.33° C | 38% | 1023.4 hPa | 0 mm | - | - | - |
| 1788401668 | 13.33° C | 34% | 1023.4 hPa | 0 mm | - | - | - |
| 1788401068 | 12.78° C | 36% | 1023.3 hPa | 0 mm | - | - | - |
| 1788400468 | 12.22° C | 41% | 1023.3 hPa | 0.51 mm | - | - | - |
| 1788399868 | 11.67° C | 38% | 1023.3 hPa | 0 mm | - | - | - |
| 1788399267 | 11.67° C | 33% | 1023.3 hPa | 0 mm | - | - | - |
| 1788398667 | 11.67° C | 36% | 1023.3 hPa | 0 mm | - | - | - |
| 1788398067 | 11.67° C | 30% | 1023.4 hPa | 0 mm | - | - | - |
| 1788397466 | 12.22° C | 27% | 1023.3 hPa | 0 mm | - | - | - |
| 1788396866 | 11.67° C | 27% | 1023.1 hPa | 0 mm | - | - | - |
| 1788396266 | 11.11° C | 32% | 1023 hPa | 0 mm | - | - | - |
| 1788395666 | 10.56° C | 37% | 1022.6 hPa | 0 mm | - | - | - |
| 1788395065 | 10.56° C | 38% | 1022.6 hPa | 0 mm | - | - | - |
| 1788394465 | 10.56° C | 39% | 1022.6 hPa | 0 mm | - | - | - |
| 1788393865 | 10° C | 40% | 1022.6 hPa | 0 mm | - | - | - |
| 1788393264 | 9.44° C | 38% | 1022.6 hPa | 0 mm | - | - | - |
| 1788392664 | 10° C | 39% | 1022.8 hPa | 0 mm | - | - | - |
| 1788392064 | 10° C | 39% | 1022.8 hPa | 0 mm | - | - | - |
| 1788391463 | 10° C | 40% | 1022.8 hPa | 0 mm | - | - | - |
| 1788390863 | 10° C | 40% | 1022.9 hPa | 0 mm | - | - | - |
* Rain latest hour (hover to see other rain measurements)
** Current wind speed in m/s (hover to see current wind gust speed)